TimeMDT,TemperatureF,Dew PointF,Humidity,Sea Level PressureIn,VisibilityMPH,Wind Direction,Wind SpeedMPH,Gust SpeedMPH,PrecipitationIn,Events,Conditions,WindDirDegrees,DateUTC
12:53 AM,34.0,30.9,89,30.22,10.0,North,-9999.0,-,N/A,,Mostly Cloudy,0,2013-10-16 06:53:00
1:53 AM,32.0,30.0,92,30.22,10.0,Calm,Calm,-,N/A,,Clear,0,2013-10-16 07:53:00
2:53 AM,30.0,28.0,92,30.20,10.0,Calm,Calm,-,N/A,,Clear,0,2013-10-16 08:53:00
3:53 AM,28.9,27.0,92,30.19,10.0,NNW,4.6,-,N/A,,Clear,330,2013-10-16 09:53:00
4:53 AM,30.0,27.0,88,30.18,10.0,Calm,Calm,-,N/A,,Clear,0,2013-10-16 10:53:00
5:53 AM,28.9,27.0,92,30.18,10.0,Calm,Calm,-,N/A,,Clear,0,2013-10-16 11:53:00
6:53 AM,26.1,24.1,92,30.18,10.0,Calm,Calm,-,N/A,,Clear,0,2013-10-16 12:53:00
7:53 AM,30.0,28.0,92,30.16,10.0,Calm,Calm,-,N/A,,Clear,0,2013-10-16 13:53:00
8:53 AM,35.1,30.9,85,30.15,10.0,NW,3.5,-,N/A,,Clear,310,2013-10-16 14:53:00
9:53 AM,41.0,30.9,67,30.14,10.0,West,4.6,-,N/A,,Clear,270,2013-10-16 15:53:00
10:53 AM,46.9,30.9,54,30.10,10.0,WSW,5.8,-,N/A,,Clear,250,2013-10-16 16:53:00
11:53 AM,51.1,30.0,44,30.07,10.0,WNW,8.1,-,N/A,,Clear,290,2013-10-16 17:53:00
12:53 PM,53.1,25.0,34,30.04,10.0,WNW,15.0,19.6,N/A,,Clear,290,2013-10-16 18:53:00
1:53 PM,54.0,24.1,31,30.01,10.0,NW,10.4,18.4,N/A,,Clear,310,2013-10-16 19:53:00
2:53 PM,55.9,23.0,28,29.99,10.0,NW,11.5,-,N/A,,Clear,310,2013-10-16 20:53:00
3:53 PM,55.9,21.9,27,29.99,10.0,WNW,8.1,-,N/A,,Clear,300,2013-10-16 21:53:00
4:53 PM,55.9,19.0,24,29.98,10.0,NW,9.2,-,N/A,,Clear,320,2013-10-16 22:53:00
5:53 PM,50.0,27.0,41,29.99,10.0,NW,4.6,-,N/A,,Clear,310,2013-10-16 23:53:00
6:53 PM,43.0,28.0,56,30.04,10.0,NNW,4.6,-,N/A,,Clear,340,2013-10-17 00:53:00
7:53 PM,39.0,28.9,67,30.04,10.0,NW,3.5,-,N/A,,Clear,320,2013-10-17 01:53:00
8:53 PM,39.0,28.0,65,30.05,10.0,WNW,3.5,-,N/A,,Clear,290,2013-10-17 02:53:00
9:53 PM,33.1,28.9,85,30.05,10.0,North,-9999.0,-,N/A,,Clear,0,2013-10-17 03:53:00
10:53 PM,34.0,28.9,82,30.04,10.0,North,-9999.0,-,N/A,,Clear,0,2013-10-17 04:53:00
11:53 PM,32.0,28.0,85,30.04,10.0,WNW,4.6,-,N/A,,Clear,300,2013-10-17 05:53:00